Location: Sternwarte Stuttgart
(48.7824°N, 9.1965°E)
Time: 09:53:27
(UTC+00:00)

Daily predictions for brighter satellites

Satellite Brightness Start Highest point End
(mag) Time Altitude Azimuth Time Altitude Azimuth Time Altitude Azimuth
CZ-4C R/B 3.2 19:39:22 10° NW 19:46:13 62° NE 19:54:00 10° ESE
H-2A R/B 2.3 19:45:17 10° SSE 19:50:09 57° ENE 19:55:10 10° N
Cosmos 1340 Rocket 3.0 19:46:28 10° S 19:50:26 56° E 19:54:28 10° NNE
Meteor 2-9 Rocket 4.3 19:46:27 10° NNW 19:51:49 80° W 19:57:16 10° S
Aureole 2 Rocket 3.0 19:49:43 10° NW 19:52:31 42° WSW 19:55:10 10° S
ERS-2 4.1 19:50:31 10° SSW 19:53:45 28° W 19:56:59 10° NW
Terra 3.6 19:51:40 10° ESE 19:55:01 19° ENE 19:58:22 10° NNE
Cosmos 1536 Rocket 4.0 19:51:40 10° SSE 19:55:53 43° E 20:00:08 10° NNE
Cosmos 1356 3.7 19:53:21 10° S 19:56:43 51° E 20:00:07 10° NNE
ERBS 4.2 19:58:06 10° NW 20:00:59 25° NNE 20:03:52 10° ENE
SPOT 5 3.6 19:59:05 10° SE 20:03:12 37° ENE 20:07:34 10° N
Cosmos 540 Rocket 3.6 20:00:47 10° S 20:05:48 53° ESE 20:10:51 10° NNE
USA 234 3.5 20:00:57 10° ENE 20:07:13 46° SE 20:13:28 10° SSW
SL-16 R/B 4.4 20:05:17 10° N 20:08:49 16° NE 20:12:21 10° ENE
Resurs 01 Rocket 3.6 20:06:30 10° SSW 20:10:13 26° W 20:13:58 10° NW
Cosmos 2333 Rocket 2.9 20:04:52 10° NNW 20:10:20 44° NE 20:15:48 10° SE
Cosmos 292 Rocket 3.8 20:07:54 10° SSW 20:12:40 87° WNW 20:17:28 10° NNE
COSMOS 2428 2.9 20:07:38 10° NNW 20:13:18 67° ENE 20:18:46 11° SE
CSL-04 DEB 4.4 20:09:40 10° SSE 20:13:49 83° ENE 20:17:53 10° NNW
SL-23 DEB 4.5 20:10:37 10° W 20:14:00 59° N 20:19:05 10° E
ARGOS 3.5 20:15:33 10° S 20:20:55 68° WSW 20:26:21 10° NNW
Cosmos 1763 Rocket 4.4 20:16:48 10° SW 20:21:59 53° WNW 20:27:09 10° NNE
Cosmos 1513 Rocket 4.5 20:16:42 10° S 20:22:49 83° E 20:29:05 10° N
NOSS 3-2 (C) 4.4 20:17:22 10° WSW 20:23:21 55° NW 20:30:07 10° NE
Meteor 1-23 Rocket 4.2 20:17:55 10° S 20:23:28 78° E 20:29:04 10° NNE
Cosmos 1833 4.2 20:17:45 10° SSW 20:23:29 89° SE 20:29:12 10° NNE
Abrixas rocket 2.1 20:20:47 10° W 20:24:01 84° S 20:27:16 10° E
Tiangong 2 2.5 20:25:00 10° WSW 20:27:36 24° S 20:29:17 16° SSE
CARTOSAT-1 4.5 20:24:21 12° SE 20:27:51 35° ENE 20:31:47 10° N
Meteor 2-4 Rocket 4.3 20:22:57 10° SSW 20:28:23 62° WNW 20:34:02 10° N
Cosmos 2297 Rocket 4.0 20:26:31 10° ESE 20:28:42 13° E 20:30:59 10° ENE
SL-08 RB Rocket 4.0 20:24:26 10° S 20:28:57 67° WSW 20:33:33 10° NNW
Cosmos 1025 Rocket 3.5 20:25:36 10° SSE 20:29:45 45° E 20:33:57 10° NNE
Cosmos 841 Rocket 4.1 20:24:54 10° SW 20:30:07 63° WNW 20:35:23 10° NNE
Cosmos 2322 Rocket 4.3 20:26:09 10° NW 20:30:11 20° W 20:34:11 10° SSW
Cosmos 2034 Rocket 4.0 20:24:15 10° S 20:30:23 77° E 20:36:34 10° NNE
Cosmos 1464 Rocket 4.2 20:25:37 10° SSW 20:32:00 80° W 20:38:25 10° N
Cosmos 2227 Rocket 3.9 20:30:05 12° SE 20:32:32 15° E 20:35:40 10° ENE
Cosmos 372 Rocket 4.2 20:27:42 10° NNW 20:32:48 68° WSW 20:37:41 11° S
CENTAUR R/B 2.7 20:26:40 10° SW 20:32:50 83° NW 20:40:02 10° NE
Cosmos 2322 4.3 20:28:32 10° NW 20:34:08 55° WSW 20:39:42 10° S
Okean 2 3.5 20:30:41 10° S 20:34:47 62° E 20:38:56 10° NNE
Cosmos 2237 Rocket 3.1 20:29:50 10° NNW 20:35:12 40° NE 20:40:07 12° ESE
ISS -2.9 20:37:10 10° WNW 20:40:22 48° N 20:43:33 10° ENE
Cosmos 1606 Rocket 4.3 20:37:17 10° N 20:41:30 41° ENE 20:44:39 17° SE
Helios 1A 3.0 20:43:57 14° SSE 20:47:30 81° WSW 20:51:43 10° NNW
Cosmos 1356 Rocket 3.5 20:44:31 10° S 20:48:46 72° E 20:53:05 10° NNE
Cosmos 1066 Rocket 4.3 20:43:44 11° S 20:48:52 59° E 20:54:16 10° NNE
Cosmos 2084 Rocket 3.9 20:45:43 10° NW 20:49:39 49° NE 20:52:42 15° ESE
ERS-1 Rocket 3.6 20:47:48 10° S 20:52:42 53° W 20:57:38 10° NNW
Cosmos 1634 Rocket 4.3 20:49:38 14° SSE 20:54:55 52° E 21:01:02 10° NNE
USA 245 4.4 20:52:51 11° S 20:56:30 48° W 21:01:17 10° NNW
Helios 1B rocket 2.5 20:57:11 10° NNE 21:01:19 62° ESE 21:04:26 17° S
Lacrosse 5 rocket 3.6 21:00:31 10° W 21:02:55 15° WSW 21:05:15 10° SSW
Cosmos 2219 3.3 21:01:02 10° S 21:06:41 61° ESE 21:12:22 10° NNE
Cosmos 1544 3.1 21:03:55 10° NNW 21:07:39 81° W 21:09:57 22° S
CZ-2C R/B 3.6 21:06:05 10° NNE 21:11:11 34° E 21:14:10 21° SE
Landsat 7 4.1 21:09:52 17° S 21:13:28 66° WSW 21:18:14 10° NNW
Cosmos 1953 4.0 21:11:22 10° NNE 21:14:28 21° ENE 21:16:20 16° ESE
YAOGAN 11 4.2 21:12:23 22° SSE 21:15:12 72° ENE 21:19:46 10° N
Meteor 1-22 Rocket 4.0 21:12:08 10° N 21:17:31 86° ENE 21:21:05 21° SSE
Cosmos 2360 Rocket 4.2 21:14:06 10° NW 21:18:00 19° W 21:21:54 10° SW
SJ 16-02 3.4 21:15:30 10° NW 21:18:49 21° W 21:22:06 10° SW
IGS 5A 3.6 21:16:47 22° S 21:19:26 72° WSW 21:23:37 10° NNW
Cosmos 2219 Rocket 2.6 21:15:23 10° NW 21:20:51 57° WSW 21:24:39 20° S
Cosmos 2228 3.1 21:17:18 10° N 21:21:36 65° ENE 21:23:54 26° SSE
Cosmos 1892 Rocket 3.7 21:20:16 25° SSE 21:22:37 55° E 21:26:53 10° NNE
Spot 1 4.2 21:21:10 22° S 21:23:41 62° WSW 21:27:46 10° NNW
CZ-2C R/B 3.2 21:22:36 22° SSE 21:26:16 84° ENE 21:32:02 10° NNW
SPOT 1/Viking Rocket 4.4 21:22:09 14° SSW 21:26:21 44° W 21:31:18 10° NNW
H-2A R/B 4.0 21:26:10 10° SW 21:29:59 22° W 21:33:52 10° NW
Terra 2.0 21:29:15 22° S 21:32:18 65° WSW 21:37:03 10° NNW
ASTRO F (AKARI) 4.4 21:30:05 10° NNE 21:33:22 65° ESE 21:34:37 35° S
NOSS 0 Rocket 4.1 21:28:30 10° NW 21:34:42 65° WSW 21:38:39 23° S
CZ-4C R/B 3.6 21:28:05 10° NW 21:34:48 43° WSW 21:40:09 19° S
Cosmos 1726 Rocket 3.7 21:31:43 10° NNW 21:36:09 71° W 21:38:38 25° S
Cosmos 1174 3.5 21:33:32 10° NW 21:36:32 55° WSW 21:37:26 38° S
ERBS 2.2 21:34:28 10° NW 21:37:51 89° SW 21:39:03 38° SE
Meteor 1-29 3.4 21:36:29 10° N 21:39:56 59° WNW 21:42:06 21° SSW
Cosmos 1766 3.6 21:36:31 10° NNW 21:40:28 61° W 21:42:28 27° SSW
SPOT 5 4.3 21:37:55 12° SSW 21:41:24 28° W 21:45:26 10° NW
Okean 1-7 Rocket 4.1 21:39:52 15° SSW 21:43:29 59° WNW 21:47:59 10° N
Cosmos 1733 3.7 21:39:57 10° N 21:43:41 46° ENE 21:45:01 32° SE
Cosmos 773 Rocket 4.0 21:44:39 25° S 21:47:34 63° ESE 21:52:41 10° NNE
USA 234 3.5 21:43:57 10° NE 21:50:30 73° NNW 21:57:02 10° WSW
SL-16 R/B 2.5 21:48:30 10° NNW 21:54:09 62° ENE 21:57:30 25° SE
Cosmos 2333 Rocket 3.2 21:49:21 10° NW 21:54:32 36° WSW 21:57:51 20° SSW
ADEOS Rocket 4.3 21:51:07 10° NE 21:55:12 21° E 21:57:03 18° ESE
COSMOS 2428 4.4 21:52:44 10° NW 21:57:03 23° WSW 22:00:46 12° SSW
Cosmos 2058 Rocket 3.4 21:53:29 10° NNW 21:57:58 60° W 22:00:10 28° SSW
Cosmos 2026 Rocket 4.4 21:52:44 10° NNW 21:58:43 55° W 22:02:49 20° SSW
Abrixas rocket 2.0 21:57:11 10° W 22:00:24 62° SSW 22:00:36 60° S
Cosmos 1980 4.2 21:56:51 10° NW 22:02:19 51° WSW 22:05:11 26° S
BREEZE-M R/B 1.6 22:02:27 10° W 22:05:00 80° NNW 22:05:00 80° NNW
Iridium 4 Rocket 3.8 22:04:12 29° S 22:07:19 75° E 22:13:15 10° N
Cosmos 2279 Rocket 4.0 22:03:27 22° SSW 22:07:41 80° W 22:13:56 10° N
Spot 4 3.9 22:06:16 32° S 22:08:30 74° WSW 22:13:24 10° NNW
Cosmos 1758 3.4 22:07:35 10° NNW 22:11:41 75° W 22:13:05 40° S
Cosmos 2297 Rocket 2.1 22:08:16 24° SSW 22:11:45 75° ESE 22:17:25 10° NNE
Cosmos 1805 4.3 22:08:28 10° NNW 22:12:08 38° W 22:13:43 26° SW
COSMOS 2455 2.8 22:07:47 20° SSW 22:12:09 75° ESE 22:18:12 10° NE
CZ-4 R/B 4.2 22:07:34 10° NNE 22:12:30 52° E 22:14:21 34° SSE
Cosmos 1400 Rocket 4.3 22:14:23 23° ESE 22:15:06 24° E 22:18:26 10° NE
Cosmos 2227 Rocket 2.1 22:11:50 21° SSW 22:15:44 88° ESE 22:21:27 10° NNE
Cosmos 1842 3.9 22:14:09 26° SW 22:16:02 50° WNW 22:19:51 10° N
ISS -3.9 22:13:46 10° WNW 22:17:03 87° NNE 22:17:42 54° ESE
Cosmos 1655 Rocket 4.3 22:10:50 10° NNW 22:17:07 61° W 22:20:52 25° SSW
Cosmos 2237 Rocket 3.0 22:13:59 10° NW 22:19:18 41° WSW 22:21:57 26° SSW
Cosmos 1470 2.6 22:16:17 10° N 22:20:12 89° E 22:21:12 48° S
ALOS 2 3.1 22:19:14 32° SE 22:20:55 51° ENE 22:25:12 10° N
Cosmos 1812 Rocket 3.5 22:19:00 10° N 22:23:23 79° E 22:24:48 42° SSE
Cosmos 1626 Rocket 3.5 22:22:01 39° S 22:23:40 85° ESE 22:28:10 10° N
Cosmos 1602 Rocket 3.5 22:25:56 41° S 22:27:28 83° E 22:31:56 10° N
Mayak -0.6 22:24:18 10° NNE 22:28:20 42° E 22:29:14 36° SE
Meteor 2-11 Rocket 4.4 22:26:32 31° S 22:29:34 74° E 22:35:39 10° NNE
Cosmos 2082 3.7 22:28:12 25° SSW 22:31:42 88° ESE 22:37:29 10° NNE
DELTA 2 DEB (DPAF) 4.2 22:32:19 40° SSE 22:33:54 74° ENE 22:38:22 10° N
Cosmos 1371 Rocket 4.2 22:32:45 10° NNW 22:38:01 67° ENE 22:40:26 32° SE
Cosmos 1378 3.2 22:38:47 49° SSW 22:39:42 74° W 22:43:28 10° N
Cosmos 1818 3.5 22:36:41 25° SSW 22:39:56 84° SE 22:45:26 10° NE
Cosmos 1758 Rocket 4.5 22:39:03 31° SE 22:40:11 37° E 22:44:20 10° NNE
Cosmos 1707 2.7 22:39:49 53° S 22:40:40 79° E 22:44:35 10° NNE
USA 229 DEB 4.1 22:39:56 31° SSE 22:42:33 45° ESE 22:49:03 10° NE
USA 229 4.1 22:40:04 31° SSE 22:42:39 44° ESE 22:49:08 10° NE
Cosmos 2266 Rocket 4.1 22:37:21 10° NNW 22:43:42 72° W 22:46:57 31° S
COBE Rocket 4.0 22:41:15 10° N 22:45:58 69° WNW 22:48:08 32° SSW
CZ-4C R/B 3.5 22:46:10 44° SSE 22:47:34 85° ENE 22:52:01 10° NNW
SL-19 R/B 4.4 22:43:18 10° NNE 22:49:30 88° WNW 22:52:36 30° SSW
H-2A R/B 2.0 22:48:21 43° SSE 22:49:39 74° ENE 22:53:53 10° N
Cosmos 1953 3.3 22:47:20 10° NNW 22:51:02 36° W 22:52:03 31° SW
CZ-2C R/B 3.7 22:46:15 10° N 22:51:33 43° WNW 22:55:42 16° SW
Cosmos 1315 Rocket 4.1 22:52:21 26° ESE 22:52:55 27° E 22:56:17 10° NNE
Cosmos 2056 Rocket 3.5 22:49:26 10° NNW 22:54:35 73° ENE 22:56:46 34° SE
CZ-4B R/B 3.6 22:51:19 10° NNE 22:56:25 64° ESE 22:58:17 38° SSE
Cosmos 1346 Rocket 4.2 22:56:32 10° N 22:59:58 30° ENE 23:01:15 24° ESE
Cosmos 1680 Rocket 3.5 23:00:46 33° SSW 23:03:10 81° WNW 23:08:26 10° NNE
Cosmos 923 Rocket 4.3 23:00:29 26° SW 23:03:24 64° WNW 23:08:37 10° NNE
Cosmos 1624 Rocket 4.0 22:58:42 10° NNW 23:04:05 90° E 23:06:16 37° SSE
Cosmos 1238 Rocket 2.9 23:06:01 49° SSE 23:06:55 66° E 23:10:35 10° NNE
Cosmos 2112 Rocket 3.9 23:05:01 35° SSW 23:07:15 86° WNW 23:12:29 10° NNE
BREEZE-M R/B 4.2 23:01:05 10° WNW 23:07:41 81° N 23:14:04 10° E
Cosmos 1674 3.8 23:16:10 28° ESE 23:16:41 29° E 23:19:59 10° NNE
Cosmos 1825 Rocket 3.5 23:16:23 46° SSW 23:17:40 82° W 23:22:10 10° N
Cosmos 972 Rocket 3.9 23:24:38 37° SSW 23:26:44 86° WNW 23:31:43 10° NNE
Cosmos 2263 Rocket 3.2 23:30:09 27° SE 23:32:01 34° ESE 23:37:05 10° NE
USA 234 4.4 23:26:54 10° ENE 23:33:03 45° N 23:39:14 10° WNW
Cosmos 1943 3.3 23:28:32 10° NNW 23:34:16 74° ENE 23:37:34 26° SE
SL-16 R/B 3.5 23:33:20 10° NW 23:37:49 24° WSW 23:39:22 22° SW
Cosmos 1745 Rocket 4.1 23:34:32 10° N 23:40:57 80° E 23:44:17 30° SSE
ADEOS Rocket 3.0 23:35:49 10° N 23:41:17 63° WNW 23:44:00 30° SW
CZ-4B R/B 3.8 23:40:11 13° ESE 23:42:00 18° ENE 23:44:24 10° NNE
Meteor 1-24 Rocket 3.8 23:40:20 35° SSW 23:42:55 88° WNW 23:48:56 10° NNE
PSLV R/B 4.5 23:45:03 10° NNE 23:49:12 40° E 23:50:37 31° SE
Cosmos 1726 2.1 23:47:02 10° N 23:50:44 71° E 23:51:28 52° SE
Cosmos 1400 Rocket 4.0 23:50:01 27° WSW 23:51:26 34° WNW 23:55:16 10° N
Cosmos 1842 Rocket 3.7 23:48:47 10° N 23:53:09 67° ENE 23:54:43 38° SSE
Aureole 1 Rocket 3.8 23:53:41 23° E 23:53:41 23° E 23:55:56 10° NE
Meteor 2-13 Rocket 4.4 23:47:31 10° N 23:53:37 82° E 23:56:47 30° SSE
